FW0979 Weather Reports


time (UTC)temp
C
wind
direction
speed
KPH
gust
KPH
rain 1hr
cm
rain 24hr
cm
rain mn
cm
humidity
%
barometer
mb
20260504034503 18 196 8.0 16.1 0.00 0.00 0.00 52 1011.4
20260504033002 18 205 9.7 19.3 0.00 0.00 0.00 51 1011.2
20260504031502 18 181 8.0 17.7 0.00 0.00 0.00 50 1011.2
20260504030002 18 191 4.8 11.3 0.00 0.00 0.00 49 1011.1
20260504024500 19 191 3.2 8.0 0.00 0.00 0.00 47 1011.0
20260504023002 20 193 4.8 9.7 0.00 0.00 0.00 46 1011.0
20260504021603 20 192 6.4 12.9 0.00 0.00 0.00 44 1010.8
20260504020119 20 200 8.0 11.3 0.00 0.00 0.00 42 1010.8
20260504014605 21 212 4.8 12.9 0.00 0.00 0.00 40 1010.9
20260504013106 21 205 4.8 14.5 0.00 0.00 0.00 38 1010.8
20260504011600 22 219 8.0 17.7 0.00 0.00 0.00 37 1010.9
20260504010058 22 234 8.0 17.7 0.00 0.00 0.00 36 1010.8
20260504004559 22 238 8.0 16.1 0.00 0.00 0.00 36 1010.9
20260504003057 22 248 9.7 20.9 0.00 0.00 0.00 36 1011.1
20260504001556 23 228 14.5 25.7 0.00 0.00 0.00 34 1011.3
20260504000054 23 209 14.5 35.4 0.00 0.00 0.00 34 1011.4
20260503234550 23 236 11.3 20.9 0.00 0.00 0.00 35 1011.5
20260503233049 23 224 11.3 24.1 0.00 0.00 0.00 35 1011.8
20260503231547 23 212 11.3 29.0 0.00 0.00 0.00 34 1011.8
20260503230059 23 220 9.7 24.1 0.00 0.00 0.00 36 1011.9
20260503224542 23 229 12.9 27.4 0.00 0.00 0.00 36 1012.2
20260503223040 23 243 12.9 25.7 0.00 0.00 0.00 35 1012.4
20260503221538 23 238 14.5 25.7 0.00 0.00 0.00 35 1012.7
20260503220036 23 252 12.9 32.2 0.00 0.00 0.00 35 1012.8
20260503214541 23 200 12.9 24.1 0.00 0.00 0.00 36 1013.1
20260503213032 23 229 14.5 27.4 0.00 0.00 0.00 35 1013.4
20260503211529 23 220 11.3 30.6 0.00 0.00 0.00 35 1013.6
20260503210025 23 241 16.1 32.2 0.00 0.00 0.00 35 1014.2
20260503204523 23 200 8.0 20.9 0.00 0.00 0.00 36 1014.4
20260503203020 22 233 11.3 25.7 0.00 0.00 0.00 36 1014.6
20260503201518 22 179 12.9 29.0 0.00 0.00 0.00 37 1015.0
20260503200016 22 199 12.9 29.0 0.00 0.00 0.00 37 1015.4
20260503194513 22 212 11.3 25.7 0.00 0.00 0.00 38 1015.4
20260503193011 22 179 11.3 25.7 0.00 0.00 0.00 38 1015.8
20260503191515 22 263 12.9 24.1 0.00 0.00 0.00 37 1016.2
20260503190008 22 179 11.3 27.4 0.00 0.00 0.00 38 1016.5
20260503184504 22 213 14.5 25.7 0.00 0.00 0.00 38 1016.8
20260503183102 22 236 12.9 24.1 0.00 0.00 0.00 39 1017.0
20260503181614 22 221 11.3 27.4 0.00 0.00 0.00 40 1017.3
20260503180115 21 210 12.9 24.1 0.00 0.00 0.00 40 1017.6
20260503174557 21 245 12.9 27.4 0.00 0.00 0.00 40 1018.1
20260503173059 21 224 12.9 29.0 0.00 0.00 0.00 42 1018.1
20260503171545 20 178 12.9 27.4 0.00 0.00 0.00 43 1018.5
20260503081534 11 210 3.2 9.7 0.00 0.00 0.00 71 1019.8
20260503071511 12 360 3.2 8.0 0.00 0.00 0.00 70 1020.5
20260503054548 12 232 1.6 6.4 0.00 0.00 0.00 65 1020.9
20260503053047 13 232 1.6 4.8 0.00 0.00 0.00 64 1020.9
20260503051547 13 232 1.6 8.0 0.00 0.00 0.00 63 1020.9
20260503050046 13 232 3.2 8.0 0.00 0.00 0.00 63 1021.0
20260503044548 13 360 3.2 6.4 0.00 0.00 0.00 62 1021.0
20260503043044 13 360 0.0 4.8 0.00 0.00 0.00 62 1021.0
20260503041544 13 360 1.6 4.8 0.00 0.00 0.00 61 1021.0
20260503040046 13 360 3.2 4.8 0.00 0.00 0.00 61 1021.0